Year,Month,Day,Hour,Minute,Value (Times are PST for windgust in km/hr)
2014,10,23,00,00,20.90
2014,10,23,00,01,19.30
2014,10,23,00,02,25.70
2014,10,23,00,03,20.90
2014,10,23,00,04,24.20
2014,10,23,00,05,19.30
2014,10,23,00,06,22.50
2014,10,23,00,07,41.80
2014,10,23,00,08,20.90
2014,10,23,00,09,17.70
2014,10,23,00,10,12.90
2014,10,23,00,11,9.60
2014,10,23,00,12,17.70
2014,10,23,00,13,8.10
2014,10,23,00,14,11.30
2014,10,23,00,15,9.60
2014,10,23,00,16,4.80
2014,10,23,00,17,1.60
2014,10,23,00,18,4.80
2014,10,23,00,19,3.20
2014,10,23,00,20,3.20
2014,10,23,00,21,4.80
2014,10,23,00,22,3.20
2014,10,23,00,23,8.10
2014,10,23,00,24,9.60
2014,10,23,00,25,4.80
2014,10,23,00,26,8.10
2014,10,23,00,27,3.20
2014,10,23,00,28,3.20
2014,10,23,00,29,4.80
2014,10,23,00,30,6.40
2014,10,23,00,31,3.20
2014,10,23,00,32,4.80
2014,10,23,00,33,8.10
2014,10,23,00,34,8.10
2014,10,23,00,35,4.80
2014,10,23,00,36,3.20
2014,10,23,00,37,3.20
2014,10,23,00,38,1.60
2014,10,23,00,39,3.20
2014,10,23,00,40,3.20
2014,10,23,00,41,3.20
2014,10,23,00,42,3.20
2014,10,23,00,43,6.40
2014,10,23,00,44,8.10
2014,10,23,00,45,6.40
2014,10,23,00,46,3.20
2014,10,23,00,47,3.20
2014,10,23,00,48,3.20
2014,10,23,00,49,4.80
2014,10,23,00,50,3.20
2014,10,23,00,51,9.60
2014,10,23,00,52,6.40
2014,10,23,00,53,6.40
2014,10,23,00,54,8.10
2014,10,23,00,55,3.20
2014,10,23,00,56,3.20
2014,10,23,00,57,1.60
2014,10,23,00,58,3.20
2014,10,23,00,59,8.10
2014,10,23,01,00,6.40
2014,10,23,01,01,4.80
2014,10,23,01,02,4.80
2014,10,23,01,03,3.20
2014,10,23,01,04,6.40
2014,10,23,01,05,6.40
2014,10,23,01,06,8.10
2014,10,23,01,07,6.40
2014,10,23,01,08,4.80
2014,10,23,01,09,8.10
2014,10,23,01,10,4.80
2014,10,23,01,11,1.60
2014,10,23,01,12,3.20
2014,10,23,01,13,3.20
2014,10,23,01,14,3.20
2014,10,23,01,15,4.80
2014,10,23,01,16,4.80
2014,10,23,01,17,4.80
2014,10,23,01,18,6.40
2014,10,23,01,19,6.40
2014,10,23,01,20,4.80
2014,10,23,01,21,1.60
2014,10,23,01,22,1.60
2014,10,23,01,23,3.20
2014,10,23,01,25,3.20
2014,10,23,01,26,4.80
2014,10,23,01,27,3.20
2014,10,23,01,28,4.80
2014,10,23,01,29,3.20
2014,10,23,01,30,4.80
2014,10,23,01,31,3.20
2014,10,23,01,32,3.20
2014,10,23,01,33,4.80
2014,10,23,01,34,4.80
2014,10,23,01,35,3.20
2014,10,23,01,36,3.20
2014,10,23,01,37,3.20
2014,10,23,01,38,3.20
2014,10,23,01,39,1.60
2014,10,23,01,40,1.60
2014,10,23,01,41,3.20
2014,10,23,01,42,1.60
2014,10,23,01,43,1.60
2014,10,23,01,44,1.60
2014,10,23,01,45,1.60
2014,10,23,01,46,1.60
2014,10,23,01,47,1.60
2014,10,23,01,48,1.60
2014,10,23,01,50,1.60
2014,10,23,01,51,1.60
2014,10,23,01,52,1.60
2014,10,23,01,53,1.60
2014,10,23,01,55,3.20
2014,10,23,01,56,1.60
2014,10,23,01,57,1.60
2014,10,23,02,00,1.60
2014,10,23,02,01,1.60
2014,10,23,02,02,1.60
2014,10,23,02,03,1.60
2014,10,23,02,04,1.60
2014,10,23,02,05,1.60
2014,10,23,02,08,1.60
2014,10,23,02,09,1.60
2014,10,23,02,27,1.60
2014,10,23,02,28,3.20
2014,10,23,02,29,1.60
2014,10,23,02,30,3.20
2014,10,23,02,31,6.40
2014,10,23,02,32,6.40
2014,10,23,02,33,4.80
2014,10,23,02,34,4.80
2014,10,23,02,35,4.80
2014,10,23,02,36,6.40
2014,10,23,02,37,9.60
2014,10,23,02,38,8.10
2014,10,23,02,39,8.10
2014,10,23,02,40,6.40
2014,10,23,02,41,6.40
2014,10,23,02,42,1.60
2014,10,23,02,43,3.20
2014,10,23,02,44,4.80
2014,10,23,02,45,6.40
2014,10,23,02,46,6.40
2014,10,23,02,47,3.20
2014,10,23,02,48,3.20
2014,10,23,02,49,4.80
2014,10,23,02,50,3.20
2014,10,23,02,51,3.20
2014,10,23,02,52,1.60
2014,10,23,02,55,1.60
2014,10,23,02,56,1.60
2014,10,23,02,57,1.60
2014,10,23,02,58,3.20
2014,10,23,02,59,3.20
2014,10,23,03,00,3.20
2014,10,23,03,01,3.20
2014,10,23,03,02,1.60
2014,10,23,03,03,3.20
2014,10,23,03,04,3.20
2014,10,23,03,05,3.20
2014,10,23,03,06,3.20
2014,10,23,03,07,3.20
2014,10,23,03,08,4.80
2014,10,23,03,09,4.80
2014,10,23,03,10,3.20
2014,10,23,03,11,3.20
2014,10,23,03,12,3.20
2014,10,23,03,13,1.60
2014,10,23,03,22,3.20
2014,10,23,03,23,3.20
2014,10,23,03,24,1.60
2014,10,23,03,25,1.60
2014,10,23,03,26,1.60
2014,10,23,03,27,3.20
2014,10,23,03,28,3.20
2014,10,23,03,29,1.60
2014,10,23,03,34,1.60
2014,10,23,03,35,3.20
2014,10,23,03,36,1.60
2014,10,23,03,51,1.60
2014,10,23,03,52,1.60
2014,10,23,03,53,1.60
2014,10,23,04,09,1.60
2014,10,23,04,10,1.60
2014,10,23,04,11,1.60
2014,10,23,04,12,1.60
2014,10,23,04,13,1.60
2014,10,23,04,14,1.60
2014,10,23,04,15,1.60
2014,10,23,04,16,3.20
2014,10,23,04,17,3.20
2014,10,23,04,18,3.20
2014,10,23,04,19,3.20
2014,10,23,04,20,3.20
2014,10,23,04,21,3.20
2014,10,23,04,22,4.80
2014,10,23,04,23,4.80
2014,10,23,04,24,6.40
2014,10,23,04,25,4.80
2014,10,23,04,26,3.20
2014,10,23,04,27,1.60
2014,10,23,04,28,1.60
2014,10,23,04,29,1.60
2014,10,23,04,30,1.60
2014,10,23,04,31,1.60
2014,10,23,04,32,1.60
2014,10,23,04,35,1.60
2014,10,23,04,36,1.60
2014,10,23,04,37,1.60
2014,10,23,04,38,1.60
2014,10,23,04,39,1.60
2014,10,23,04,40,3.20
2014,10,23,04,41,3.20
2014,10,23,04,42,3.20
2014,10,23,04,43,3.20
2014,10,23,04,44,3.20
2014,10,23,04,45,3.20
2014,10,23,04,46,3.20
2014,10,23,04,47,3.20
2014,10,23,04,48,3.20
2014,10,23,04,49,3.20
2014,10,23,04,50,3.20
2014,10,23,04,51,1.60
2014,10,23,04,52,1.60
2014,10,23,04,54,1.60
2014,10,23,04,55,1.60
2014,10,23,04,56,1.60
2014,10,23,04,57,3.20
2014,10,23,04,58,3.20
2014,10,23,04,59,3.20
2014,10,23,05,00,1.60
2014,10,23,05,01,1.60
2014,10,23,05,04,1.60
2014,10,23,05,05,1.60
2014,10,23,05,06,1.60
2014,10,23,05,07,1.60
2014,10,23,05,08,1.60
2014,10,23,05,09,1.60
2014,10,23,05,17,1.60
2014,10,23,05,18,1.60
2014,10,23,05,19,3.20
2014,10,23,05,20,3.20
2014,10,23,05,21,3.20
2014,10,23,05,22,3.20
2014,10,23,05,23,4.80
2014,10,23,05,24,3.20
2014,10,23,05,25,3.20
2014,10,23,05,26,3.20
2014,10,23,05,27,1.60
2014,10,23,05,28,1.60
2014,10,23,05,29,1.60
2014,10,23,05,30,1.60
2014,10,23,05,33,1.60
2014,10,23,05,34,1.60
2014,10,23,05,35,1.60
2014,10,23,05,36,1.60
2014,10,23,05,37,1.60
2014,10,23,05,38,1.60
2014,10,23,05,39,1.60
2014,10,23,05,40,3.20
2014,10,23,05,41,4.80
2014,10,23,05,42,6.40
2014,10,23,05,43,6.40
2014,10,23,05,44,6.40
2014,10,23,05,45,4.80
2014,10,23,05,46,4.80
2014,10,23,05,47,4.80
2014,10,23,05,48,3.20
2014,10,23,05,49,3.20
2014,10,23,05,50,1.60
2014,10,23,05,51,3.20
2014,10,23,05,52,4.80
2014,10,23,05,53,3.20
2014,10,23,05,54,1.60
2014,10,23,05,56,1.60
2014,10,23,05,57,1.60
2014,10,23,05,58,3.20
2014,10,23,05,59,3.20
2014,10,23,06,00,3.20
2014,10,23,06,01,4.80
2014,10,23,06,02,6.40
2014,10,23,06,03,6.40
2014,10,23,06,04,4.80
2014,10,23,06,05,3.20
2014,10,23,06,06,3.20
2014,10,23,06,07,3.20
2014,10,23,06,08,1.60
2014,10,23,06,09,1.60
2014,10,23,06,10,1.60
2014,10,23,06,11,4.80
2014,10,23,06,12,4.80
2014,10,23,06,13,3.20
2014,10,23,06,14,3.20
2014,10,23,06,15,4.80
2014,10,23,06,16,4.80
2014,10,23,06,17,6.40
2014,10,23,06,18,6.40
2014,10,23,06,19,4.80
2014,10,23,06,20,6.40
2014,10,23,06,21,4.80
2014,10,23,06,22,4.80
2014,10,23,06,23,3.20
2014,10,23,06,24,1.60
2014,10,23,06,25,1.60
2014,10,23,06,26,1.60
2014,10,23,06,29,1.60
2014,10,23,06,33,3.20
2014,10,23,06,34,4.80
2014,10,23,06,35,3.20
2014,10,23,06,36,3.20
2014,10,23,06,37,3.20
2014,10,23,06,38,4.80
2014,10,23,06,39,3.20
2014,10,23,06,40,3.20
2014,10,23,06,41,3.20
2014,10,23,06,42,3.20
2014,10,23,06,43,1.60
2014,10,23,06,44,1.60
2014,10,23,06,46,1.60
2014,10,23,06,47,1.60
2014,10,23,06,48,3.20
2014,10,23,06,49,3.20
2014,10,23,06,50,4.80
2014,10,23,06,51,6.40
2014,10,23,06,52,4.80
2014,10,23,06,53,6.40
2014,10,23,06,54,3.20
2014,10,23,06,55,3.20
2014,10,23,06,56,3.20
2014,10,23,06,57,3.20
2014,10,23,06,58,3.20
2014,10,23,06,59,4.80
2014,10,23,07,00,3.20
2014,10,23,07,01,4.80
2014,10,23,07,02,4.80
2014,10,23,07,03,4.80
2014,10,23,07,04,4.80
2014,10,23,07,05,4.80
2014,10,23,07,06,3.20
2014,10,23,07,07,3.20
2014,10,23,07,08,3.20
2014,10,23,07,19,1.60
2014,10,23,07,20,1.60
2014,10,23,07,21,4.80
2014,10,23,07,22,3.20
2014,10,23,07,23,3.20
2014,10,23,07,24,1.60
2014,10,23,07,25,3.20
2014,10,23,07,26,3.20
2014,10,23,07,27,1.60
2014,10,23,07,28,1.60
2014,10,23,07,29,3.20
2014,10,23,07,30,3.20
2014,10,23,07,31,3.20
2014,10,23,07,32,3.20
2014,10,23,07,33,3.20
2014,10,23,07,34,3.20
2014,10,23,07,35,3.20
2014,10,23,07,36,4.80
2014,10,23,07,37,1.60
2014,10,23,07,38,3.20
2014,10,23,07,39,3.20
2014,10,23,07,40,1.60
2014,10,23,07,41,3.20
2014,10,23,07,42,3.20
2014,10,23,07,43,1.60
2014,10,23,07,44,1.60
2014,10,23,07,45,3.20
2014,10,23,07,46,3.20
2014,10,23,07,47,3.20
2014,10,23,07,48,3.20
2014,10,23,07,49,3.20
2014,10,23,07,50,3.20
2014,10,23,07,51,3.20
2014,10,23,07,52,3.20
2014,10,23,07,53,1.60
2014,10,23,07,54,1.60
2014,10,23,07,56,1.60
2014,10,23,07,58,1.60
2014,10,23,07,59,1.60
2014,10,23,08,00,1.60
2014,10,23,08,01,1.60
2014,10,23,08,02,1.60
2014,10,23,08,03,1.60
2014,10,23,08,04,1.60
2014,10,23,08,05,1.60
2014,10,23,08,06,1.60
2014,10,23,08,07,1.60
2014,10,23,08,08,1.60
2014,10,23,08,09,1.60
2014,10,23,08,10,1.60
2014,10,23,08,11,1.60
2014,10,23,08,12,1.60
2014,10,23,08,14,1.60
2014,10,23,08,15,3.20
2014,10,23,08,16,3.20
2014,10,23,08,17,3.20
2014,10,23,08,18,1.60
2014,10,23,08,20,1.60
2014,10,23,08,21,1.60
2014,10,23,08,22,1.60
2014,10,23,08,23,3.20
2014,10,23,08,24,3.20
2014,10,23,08,25,1.60
2014,10,23,08,26,1.60
2014,10,23,08,27,1.60
2014,10,23,08,28,1.60
2014,10,23,08,29,1.60
2014,10,23,08,33,1.60
2014,10,23,08,34,1.60
2014,10,23,08,35,1.60
2014,10,23,08,36,1.60
2014,10,23,08,37,1.60
2014,10,23,08,38,1.60
2014,10,23,08,39,3.20
2014,10,23,08,40,3.20
2014,10,23,08,41,3.20
2014,10,23,08,42,3.20
2014,10,23,08,43,3.20
2014,10,23,08,44,3.20
2014,10,23,08,45,3.20
2014,10,23,08,46,3.20
2014,10,23,08,47,3.20
2014,10,23,08,48,3.20
2014,10,23,08,49,1.60
2014,10,23,08,50,1.60
2014,10,23,08,51,1.60
2014,10,23,08,52,1.60
2014,10,23,08,54,1.60
2014,10,23,08,55,3.20
2014,10,23,08,56,3.20
2014,10,23,08,57,3.20
2014,10,23,08,58,3.20
2014,10,23,08,59,4.80
2014,10,23,09,00,3.20
2014,10,23,09,01,3.20
2014,10,23,09,02,6.40
2014,10,23,09,03,8.10
2014,10,23,09,04,6.40
2014,10,23,09,05,8.10
2014,10,23,09,06,6.40
2014,10,23,09,07,6.40
2014,10,23,09,08,4.80
2014,10,23,09,09,4.80
2014,10,23,09,10,6.40
2014,10,23,09,11,6.40
2014,10,23,09,12,4.80
2014,10,23,09,13,4.80
2014,10,23,09,14,3.20
2014,10,23,09,15,1.60
2014,10,23,09,16,8.10
2014,10,23,09,17,4.80
2014,10,23,09,18,3.20
2014,10,23,09,19,3.20
2014,10,23,09,20,3.20
2014,10,23,09,21,4.80
2014,10,23,09,22,4.80
2014,10,23,09,23,3.20
2014,10,23,09,24,4.80
2014,10,23,09,25,3.20
2014,10,23,09,26,3.20
2014,10,23,09,27,1.60
2014,10,23,09,28,1.60
2014,10,23,09,29,1.60
2014,10,23,09,30,1.60
2014,10,23,09,31,1.60
2014,10,23,09,32,1.60
2014,10,23,09,33,3.20
2014,10,23,09,34,1.60
2014,10,23,09,35,3.20
2014,10,23,09,36,3.20
2014,10,23,09,39,1.60
2014,10,23,09,40,4.80
2014,10,23,09,41,1.60
2014,10,23,09,42,1.60
2014,10,23,09,43,3.20
2014,10,23,09,44,3.20
2014,10,23,09,45,1.60
2014,10,23,09,46,3.20
2014,10,23,09,47,1.60
2014,10,23,09,48,3.20
2014,10,23,09,49,3.20
2014,10,23,09,50,3.20
2014,10,23,09,51,4.80
2014,10,23,09,52,3.20
2014,10,23,09,53,1.60
2014,10,23,09,54,1.60
2014,10,23,09,55,1.60
2014,10,23,09,56,1.60
2014,10,23,09,57,1.60
2014,10,23,09,58,3.20
2014,10,23,09,59,3.20
2014,10,23,10,00,3.20
2014,10,23,10,01,1.60
2014,10,23,10,03,3.20
2014,10,23,10,04,1.60
2014,10,23,10,05,1.60
2014,10,23,10,06,1.60
2014,10,23,10,09,1.60
2014,10,23,10,10,1.60
2014,10,23,10,11,4.80
2014,10,23,10,12,3.20
2014,10,23,10,13,1.60
2014,10,23,10,15,3.20
2014,10,23,10,16,4.80
2014,10,23,10,17,1.60
2014,10,23,10,18,1.60
2014,10,23,10,22,3.20
2014,10,23,10,23,3.20
2014,10,23,10,24,4.80
2014,10,23,10,25,6.40
2014,10,23,10,26,3.20
2014,10,23,10,27,3.20
2014,10,23,10,28,3.20
2014,10,23,10,29,3.20
2014,10,23,10,30,4.80
2014,10,23,10,31,6.40
2014,10,23,10,32,3.20
2014,10,23,10,33,3.20
2014,10,23,10,34,3.20
2014,10,23,10,35,4.80
2014,10,23,10,36,1.60
2014,10,23,10,37,1.60
2014,10,23,10,38,1.60
2014,10,23,10,39,3.20
2014,10,23,10,40,3.20
2014,10,23,10,41,1.60
2014,10,23,10,42,3.20
2014,10,23,10,43,6.40
2014,10,23,10,44,4.80
2014,10,23,10,45,1.60
2014,10,23,10,46,4.80
2014,10,23,10,47,4.80
2014,10,23,10,48,3.20
2014,10,23,10,49,3.20
2014,10,23,10,50,6.40
2014,10,23,10,51,3.20
2014,10,23,10,52,4.80
2014,10,23,10,53,1.60
2014,10,23,10,54,6.40
2014,10,23,10,55,4.80
2014,10,23,10,56,1.60
2014,10,23,10,57,3.20
2014,10,23,10,58,3.20
2014,10,23,10,59,1.60
2014,10,23,11,00,1.60
2014,10,23,11,01,3.20
2014,10,23,11,02,3.20
2014,10,23,11,03,1.60
2014,10,23,11,04,6.40
2014,10,23,11,05,3.20
2014,10,23,11,06,3.20
2014,10,23,11,07,1.60
2014,10,23,11,08,3.20
2014,10,23,11,09,3.20
2014,10,23,11,10,4.80
2014,10,23,11,11,8.10
2014,10,23,11,12,8.10
2014,10,23,11,13,6.40
2014,10,23,11,14,8.10
2014,10,23,11,15,3.20
2014,10,23,11,16,3.20
2014,10,23,11,17,4.80
2014,10,23,11,18,3.20
2014,10,23,11,19,4.80
2014,10,23,11,20,3.20
2014,10,23,11,21,1.60
2014,10,23,11,22,3.20
2014,10,23,11,23,6.40
2014,10,23,11,24,8.10
2014,10,23,11,25,4.80
2014,10,23,11,26,4.80
2014,10,23,11,27,4.80
2014,10,23,11,28,4.80
2014,10,23,11,29,3.20
2014,10,23,11,30,4.80
2014,10,23,11,31,4.80
2014,10,23,11,32,8.10
2014,10,23,11,33,4.80
2014,10,23,11,34,4.80
2014,10,23,11,35,3.20
2014,10,23,11,36,6.40
2014,10,23,11,37,4.80
2014,10,23,11,38,8.10
2014,10,23,11,39,6.40
2014,10,23,11,40,1.60
2014,10,23,11,41,1.60
2014,10,23,11,42,8.10
2014,10,23,11,43,8.10
2014,10,23,11,44,3.20
2014,10,23,11,45,1.60
2014,10,23,11,46,3.20
2014,10,23,11,47,3.20
2014,10,23,11,48,3.20
2014,10,23,11,49,3.20
2014,10,23,11,50,1.60
2014,10,23,11,51,3.20
2014,10,23,11,52,3.20
2014,10,23,11,53,3.20
2014,10,23,11,54,3.20
2014,10,23,11,55,3.20
2014,10,23,11,56,3.20
2014,10,23,11,57,4.80
2014,10,23,11,58,4.80
2014,10,23,11,59,3.20
2014,10,23,12,00,4.80
2014,10,23,12,01,3.20
2014,10,23,12,02,3.20
2014,10,23,12,03,6.40
2014,10,23,12,04,6.40
2014,10,23,12,05,4.80
2014,10,23,12,06,4.80
2014,10,23,12,07,9.60
2014,10,23,12,08,8.10
2014,10,23,12,09,6.40
2014,10,23,12,10,6.40
2014,10,23,12,11,4.80
2014,10,23,12,12,6.40
2014,10,23,12,13,6.40
2014,10,23,12,14,4.80
2014,10,23,12,15,6.40
2014,10,23,12,16,8.10
2014,10,23,12,17,8.10
2014,10,23,12,18,8.10
2014,10,23,12,19,9.60
2014,10,23,12,20,14.50
2014,10,23,12,21,4.80
2014,10,23,12,22,3.20
2014,10,23,12,23,8.10
2014,10,23,12,24,3.20
2014,10,23,12,25,4.80
2014,10,23,12,26,3.20
2014,10,23,12,27,1.60
2014,10,23,12,28,6.40
2014,10,23,12,29,4.80
2014,10,23,12,30,9.60
2014,10,23,12,31,9.60
2014,10,23,12,32,11.30
2014,10,23,12,33,6.40
2014,10,23,12,34,6.40
2014,10,23,12,35,4.80
2014,10,23,12,36,4.80
2014,10,23,12,37,8.10
2014,10,23,12,38,8.10
2014,10,23,12,39,8.10
2014,10,23,12,40,9.60
2014,10,23,12,41,4.80
2014,10,23,12,42,6.40
2014,10,23,12,43,4.80
2014,10,23,12,44,1.60
2014,10,23,12,45,4.80
2014,10,23,12,46,6.40
2014,10,23,12,47,6.40
2014,10,23,12,48,6.40
2014,10,23,12,49,6.40
2014,10,23,12,50,8.10
2014,10,23,12,51,8.10
2014,10,23,12,52,8.10
2014,10,23,12,53,6.40
2014,10,23,12,54,6.40
2014,10,23,12,55,6.40
2014,10,23,12,56,6.40
2014,10,23,12,57,4.80
2014,10,23,12,58,6.40
2014,10,23,12,59,6.40
2014,10,23,13,00,3.20
2014,10,23,13,01,3.20
2014,10,23,13,02,6.40
2014,10,23,13,03,3.20
2014,10,23,13,04,3.20
2014,10,23,13,05,3.20
2014,10,23,13,06,6.40
2014,10,23,13,07,4.80
2014,10,23,13,08,4.80
2014,10,23,13,09,3.20
2014,10,23,13,10,4.80
2014,10,23,13,11,6.40
2014,10,23,13,12,8.10
2014,10,23,13,13,3.20
2014,10,23,13,14,8.10
2014,10,23,13,15,8.10
2014,10,23,13,16,9.60
2014,10,23,13,17,9.60
2014,10,23,13,18,9.60
2014,10,23,13,19,8.10
2014,10,23,13,20,6.40
2014,10,23,13,21,6.40
2014,10,23,13,22,8.10
2014,10,23,13,23,11.30
2014,10,23,13,24,14.50
2014,10,23,13,25,11.30
2014,10,23,13,26,6.40
2014,10,23,13,27,8.10
2014,10,23,13,28,8.10
2014,10,23,13,29,11.30
2014,10,23,13,30,16.10
2014,10,23,13,31,9.60
2014,10,23,13,32,12.90
2014,10,23,13,33,14.50
2014,10,23,13,34,14.50
2014,10,23,13,35,9.60
2014,10,23,13,36,9.60
2014,10,23,13,37,14.50
2014,10,23,13,38,16.10
2014,10,23,13,39,11.30
2014,10,23,13,40,11.30
2014,10,23,13,41,14.50
2014,10,23,13,42,17.70
2014,10,23,13,43,16.10
2014,10,23,13,44,16.10
2014,10,23,13,45,12.90
2014,10,23,13,46,22.50
2014,10,23,13,47,19.30
2014,10,23,13,48,11.30
2014,10,23,13,49,6.40
2014,10,23,13,50,6.40
2014,10,23,13,51,4.80
2014,10,23,13,52,4.80
2014,10,23,13,53,6.40
2014,10,23,13,54,3.20
2014,10,23,13,55,6.40
2014,10,23,13,56,8.10
2014,10,23,13,57,6.40
2014,10,23,13,58,3.20
2014,10,23,13,59,8.10
2014,10,23,14,00,4.80
2014,10,23,14,01,8.10
2014,10,23,14,02,8.10
2014,10,23,14,03,6.40
2014,10,23,14,04,4.80
2014,10,23,14,05,6.40
2014,10,23,14,06,8.10
2014,10,23,14,07,8.10
2014,10,23,14,08,11.30
2014,10,23,14,09,8.10
2014,10,23,14,10,11.30
2014,10,23,14,11,4.80
2014,10,23,14,12,8.10
2014,10,23,14,13,8.10
2014,10,23,14,14,6.40
2014,10,23,14,15,4.80
2014,10,23,14,16,3.20
2014,10,23,14,17,1.60
2014,10,23,14,18,3.20
2014,10,23,14,19,4.80
2014,10,23,14,20,3.20
2014,10,23,14,21,3.20
2014,10,23,14,22,8.10
2014,10,23,14,23,6.40
2014,10,23,14,24,8.10
2014,10,23,14,25,11.30
2014,10,23,14,26,6.40
2014,10,23,14,27,4.80
2014,10,23,14,28,6.40
2014,10,23,14,29,6.40
2014,10,23,14,30,9.60
2014,10,23,14,31,8.10
2014,10,23,14,32,9.60
2014,10,23,14,33,4.80
2014,10,23,14,34,6.40
2014,10,23,14,35,6.40
2014,10,23,14,36,6.40
2014,10,23,14,37,4.80
2014,10,23,14,38,4.80
2014,10,23,14,39,6.40
2014,10,23,14,40,8.10
2014,10,23,14,41,8.10
2014,10,23,14,42,4.80
2014,10,23,14,43,8.10
2014,10,23,14,44,8.10
2014,10,23,14,45,4.80
2014,10,23,14,46,4.80
2014,10,23,14,47,4.80
2014,10,23,14,48,1.60
2014,10,23,14,49,6.40
2014,10,23,14,50,9.60
2014,10,23,14,51,4.80
2014,10,23,14,52,8.10
2014,10,23,14,53,3.20
2014,10,23,14,54,1.60
2014,10,23,14,55,4.80
2014,10,23,14,56,4.80
2014,10,23,14,57,4.80
2014,10,23,14,58,6.40
2014,10,23,14,59,6.40
2014,10,23,15,00,3.20
2014,10,23,15,01,4.80
2014,10,23,15,02,6.40
2014,10,23,15,03,1.60
2014,10,23,15,04,4.80
2014,10,23,15,05,4.80
2014,10,23,15,06,3.20
2014,10,23,15,07,3.20
2014,10,23,15,08,3.20
2014,10,23,15,09,1.60
2014,10,23,15,10,4.80
2014,10,23,15,11,4.80
2014,10,23,15,12,3.20
2014,10,23,15,13,3.20
2014,10,23,15,14,3.20
2014,10,23,15,15,3.20
2014,10,23,15,16,1.60
2014,10,23,15,17,1.60
2014,10,23,15,18,1.60
2014,10,23,15,19,1.60
2014,10,23,15,20,1.60
2014,10,23,15,21,1.60
2014,10,23,15,22,3.20
2014,10,23,15,23,3.20
2014,10,23,15,24,4.80
2014,10,23,15,25,4.80
2014,10,23,15,26,6.40
2014,10,23,15,27,1.60
2014,10,23,15,28,6.40
2014,10,23,15,29,6.40
2014,10,23,15,30,3.20
2014,10,23,15,31,6.40
2014,10,23,15,32,4.80
2014,10,23,15,33,4.80
2014,10,23,15,34,3.20
2014,10,23,15,35,3.20
2014,10,23,15,36,3.20
2014,10,23,15,37,6.40
2014,10,23,15,38,4.80
2014,10,23,15,39,4.80
2014,10,23,15,40,3.20
2014,10,23,15,41,4.80
2014,10,23,15,42,4.80
2014,10,23,15,43,6.40
2014,10,23,15,44,4.80
2014,10,23,15,45,4.80
2014,10,23,15,46,6.40
2014,10,23,15,47,8.10
2014,10,23,15,48,4.80
2014,10,23,15,49,3.20
2014,10,23,15,50,1.60
2014,10,23,15,51,4.80
2014,10,23,15,52,3.20
2014,10,23,15,53,4.80
2014,10,23,15,54,9.60
2014,10,23,15,55,14.50
2014,10,23,15,56,9.60
2014,10,23,15,57,9.60
2014,10,23,15,58,8.10
2014,10,23,15,59,11.30
2014,10,23,16,00,11.30
2014,10,23,16,01,9.60
2014,10,23,16,02,17.70
2014,10,23,16,03,11.30
2014,10,23,16,04,6.40
2014,10,23,16,05,1.60
2014,10,23,16,06,3.20
2014,10,23,16,07,6.40
2014,10,23,16,08,8.10
2014,10,23,16,09,9.60
2014,10,23,16,10,8.10
2014,10,23,16,11,6.40
2014,10,23,16,12,6.40
2014,10,23,16,13,9.60
2014,10,23,16,14,8.10
2014,10,23,16,15,11.30
2014,10,23,16,16,8.10
2014,10,23,16,17,3.20
2014,10,23,16,18,3.20
2014,10,23,16,19,3.20
2014,10,23,16,20,3.20
2014,10,23,16,21,6.40
2014,10,23,16,22,6.40
2014,10,23,16,23,4.80
2014,10,23,16,24,8.10
2014,10,23,16,25,4.80
2014,10,23,16,26,6.40
2014,10,23,16,27,8.10
2014,10,23,16,28,4.80
2014,10,23,16,29,4.80
2014,10,23,16,30,4.80
2014,10,23,16,31,8.10
2014,10,23,16,32,3.20
2014,10,23,16,33,3.20
2014,10,23,16,34,8.10
2014,10,23,16,35,4.80
2014,10,23,16,36,4.80
2014,10,23,16,37,3.20
2014,10,23,16,38,4.80
2014,10,23,16,39,6.40
2014,10,23,16,40,6.40
2014,10,23,16,41,6.40
2014,10,23,16,42,4.80
2014,10,23,16,43,4.80
2014,10,23,16,44,4.80
2014,10,23,16,45,6.40
2014,10,23,16,46,8.10
2014,10,23,16,47,4.80
2014,10,23,16,48,4.80
2014,10,23,16,49,8.10
2014,10,23,16,50,4.80
2014,10,23,16,51,8.10
2014,10,23,16,52,1.60
2014,10,23,16,53,1.60
2014,10,23,16,54,3.20
2014,10,23,16,55,1.60
2014,10,23,16,56,1.60
2014,10,23,16,57,1.60
2014,10,23,16,58,6.40
2014,10,23,16,59,6.40
2014,10,23,17,00,6.40
2014,10,23,17,01,3.20
2014,10,23,17,02,1.60
2014,10,23,17,03,3.20
2014,10,23,17,04,3.20
2014,10,23,17,05,4.80
2014,10,23,17,06,4.80
2014,10,23,17,07,1.60
2014,10,23,17,08,3.20
2014,10,23,17,09,3.20
2014,10,23,17,10,4.80
2014,10,23,17,11,1.60
2014,10,23,17,12,1.60
2014,10,23,17,13,3.20
2014,10,23,17,14,3.20
2014,10,23,17,15,4.80
2014,10,23,17,16,3.20
2014,10,23,17,17,3.20
2014,10,23,17,18,8.10
2014,10,23,17,19,8.10
2014,10,23,17,20,6.40
2014,10,23,17,21,4.80
2014,10,23,17,22,3.20
2014,10,23,17,23,3.20
2014,10,23,17,24,4.80
2014,10,23,17,25,1.60
2014,10,23,17,26,3.20
2014,10,23,17,27,4.80
2014,10,23,17,28,8.10
2014,10,23,17,29,4.80
2014,10,23,17,30,9.60
2014,10,23,17,31,11.30
2014,10,23,17,32,12.90
2014,10,23,17,33,9.60
2014,10,23,17,34,6.40
2014,10,23,17,35,8.10
2014,10,23,17,36,8.10
2014,10,23,17,37,9.60
2014,10,23,17,38,8.10
2014,10,23,17,39,9.60
2014,10,23,17,40,8.10
2014,10,23,17,41,6.40
2014,10,23,17,42,9.60
2014,10,23,17,43,9.60
2014,10,23,17,44,8.10
2014,10,23,17,45,4.80
2014,10,23,17,46,4.80
2014,10,23,17,47,3.20
2014,10,23,17,48,4.80
2014,10,23,17,49,8.10
2014,10,23,17,50,4.80
2014,10,23,17,51,4.80
2014,10,23,17,52,3.20
2014,10,23,17,53,6.40
2014,10,23,17,54,6.40
2014,10,23,17,55,8.10
2014,10,23,17,56,8.10
2014,10,23,17,57,4.80
2014,10,23,17,58,4.80
2014,10,23,17,59,4.80
2014,10,23,18,00,4.80
2014,10,23,18,01,3.20
2014,10,23,18,02,4.80
2014,10,23,18,03,3.20
2014,10,23,18,04,3.20
2014,10,23,18,05,3.20
2014,10,23,18,06,4.80
2014,10,23,18,07,3.20
2014,10,23,18,08,3.20
2014,10,23,18,09,3.20
2014,10,23,18,10,3.20
2014,10,23,18,11,1.60
2014,10,23,18,12,1.60
2014,10,23,18,13,1.60
2014,10,23,18,14,1.60
2014,10,23,18,16,1.60
2014,10,23,18,17,1.60
2014,10,23,18,18,3.20
2014,10,23,18,19,3.20
2014,10,23,18,20,1.60
2014,10,23,18,21,3.20
2014,10,23,18,22,3.20
2014,10,23,18,23,1.60
2014,10,23,18,24,3.20
2014,10,23,18,25,1.60
2014,10,23,18,29,1.60
2014,10,23,18,30,3.20
2014,10,23,18,31,3.20
2014,10,23,18,32,1.60
2014,10,23,18,33,1.60
2014,10,23,18,34,1.60
2014,10,23,18,35,3.20
2014,10,23,18,36,1.60
2014,10,23,18,37,1.60
2014,10,23,18,38,1.60
2014,10,23,18,39,1.60
2014,10,23,18,43,1.60
2014,10,23,18,47,1.60
2014,10,23,18,48,1.60
2014,10,23,18,49,1.60
2014,10,23,18,50,3.20
2014,10,23,18,51,3.20
2014,10,23,18,52,1.60
2014,10,23,18,53,1.60
2014,10,23,18,54,1.60
2014,10,23,18,55,3.20
2014,10,23,18,56,3.20
2014,10,23,18,57,1.60
2014,10,23,18,59,1.60
2014,10,23,19,00,1.60
2014,10,23,19,16,1.60
2014,10,23,19,17,1.60
2014,10,23,19,24,1.60
2014,10,23,19,26,3.20
2014,10,23,19,27,3.20
2014,10,23,19,28,4.80
2014,10,23,19,29,3.20
2014,10,23,19,30,3.20
2014,10,23,19,31,3.20
2014,10,23,19,32,1.60
2014,10,23,19,35,1.60
2014,10,23,19,36,1.60
2014,10,23,19,40,1.60
2014,10,23,19,41,3.20
2014,10,23,19,42,1.60
2014,10,23,19,43,1.60
2014,10,23,19,44,1.60
2014,10,23,19,45,3.20
2014,10,23,19,46,3.20
2014,10,23,19,47,3.20
2014,10,23,19,48,4.80
2014,10,23,19,49,3.20
2014,10,23,19,50,3.20
2014,10,23,19,51,4.80
2014,10,23,19,52,3.20
2014,10,23,19,53,4.80
2014,10,23,19,54,4.80
2014,10,23,19,55,4.80
2014,10,23,19,56,4.80
2014,10,23,19,57,6.40
2014,10,23,19,58,6.40
2014,10,23,19,59,4.80
2014,10,23,20,00,4.80
2014,10,23,20,01,3.20
2014,10,23,20,02,6.40
2014,10,23,20,03,6.40
2014,10,23,20,04,6.40
2014,10,23,20,05,6.40
2014,10,23,20,06,6.40
2014,10,23,20,07,4.80
2014,10,23,20,08,4.80
2014,10,23,20,09,6.40
2014,10,23,20,10,4.80
2014,10,23,20,11,4.80
2014,10,23,20,12,4.80
2014,10,23,20,13,3.20
2014,10,23,20,14,1.60
2014,10,23,20,15,4.80
2014,10,23,20,16,6.40
2014,10,23,20,17,8.10
2014,10,23,20,18,8.10
2014,10,23,20,19,9.60
2014,10,23,20,20,8.10
2014,10,23,20,21,9.60
2014,10,23,20,22,8.10
2014,10,23,20,23,4.80
2014,10,23,20,24,3.20
2014,10,23,20,25,4.80
2014,10,23,20,26,1.60
2014,10,23,20,27,1.60
2014,10,23,20,28,3.20
2014,10,23,20,29,4.80
2014,10,23,20,30,4.80
2014,10,23,20,31,3.20
2014,10,23,20,32,3.20
2014,10,23,20,33,3.20
2014,10,23,20,34,3.20
2014,10,23,20,35,1.60
2014,10,23,20,36,3.20
2014,10,23,20,37,4.80